When you browse on this site, cookies collect data to enhance your experience and personalize the content and advertising you see.
Visit our Privacy Policy to learn more. By continuing to use the site, you agree to this use of cookies and data.
EN

Hourly Weather Manika

Today, 13 July, Monday

Time Temperature Precipitation Wind Pressure Humidity
00:00 +10°C° 0 mm 1 mps 681 mmHg 75%
01:00 +10°C° 0 mm 1 mps 681 mmHg 77%
02:00 +9°C° 0 mm 1 mps 681 mmHg 85%
03:00 +9°C° 0 mm 1 mps 680 mmHg 86%
04:00 +8°C° 0 mm 1 mps 680 mmHg 87%
05:00 +8°C° 0 mm 1 mps 680 mmHg 89%
06:00 +10°C° 0 mm 1 mps 680 mmHg 81%
07:00 +12°C° 0 mm 1 mps 681 mmHg 73%
08:00 +14°C° 0 mm 1 mps 682 mmHg 67%
09:00 +18°C° 0 mm 1 mps 682 mmHg 55%
10:00 +20°C° 0 mm 0 mps 682 mmHg 43%
11:00 +23°C° 0 mm 0 mps 683 mmHg 32%
12:00 +26°C° 0 mm 1 mps 682 mmHg 29%
13:00 +27°C° 0 mm 1 mps 681 mmHg 25%
14:00 +27°C° 0 mm 2 mps 681 mmHg 20%
15:00 +25°C° 0 mm 2 mps 680 mmHg 23%
16:00 +24°C° 0 mm 2 mps 680 mmHg 26%
17:00 +21°C° 0 mm 2 mps 679 mmHg 30%
18:00 +20°C° 0 mm 1 mps 679 mmHg 39%
19:00 +16°C° 0 mm 1 mps 679 mmHg 48%
20:00 +14°C° 0 mm 1 mps 679 mmHg 57%
21:00 +13°C° 0 mm 1 mps 679 mmHg 59%
22:00 +13°C° 0 mm 1 mps 679 mmHg 62%
23:00 +12°C° 0 mm 1 mps 679 mmHg 64%

Tomorrow, 14 July, Tuesday

Time Temperature Precipitation Wind Pressure Humidity
00:00 +12°C° 0 mm 1 mps 678 mmHg 65%
01:00 +12°C° 0 mm 1 mps 678 mmHg 67%
02:00 +11°C° 0 mm 1 mps 678 mmHg 68%
03:00 +11°C° 0 mm 1 mps 678 mmHg 70%
04:00 +11°C° 0 mm 1 mps 677 mmHg 71%
05:00 +10°C° 0 mm 1 mps 677 mmHg 73%
06:00 +12°C° 0 mm 1 mps 678 mmHg 66%
07:00 +14°C° 0 mm 1 mps 679 mmHg 59%
08:00 +16°C° 0 mm 1 mps 680 mmHg 52%
09:00 +20°C° 0 mm 1 mps 680 mmHg 42%
10:00 +24°C° 0 mm 1 mps 680 mmHg 31%
11:00 +27°C° 0 mm 2 mps 681 mmHg 20%
12:00 +27°C° 0 mm 2 mps 680 mmHg 18%
13:00 +28°C° 0 mm 2 mps 680 mmHg 15%
14:00 +29°C° 0 mm 3 mps 680 mmHg 13%
15:00 +27°C° 0 mm 2 mps 679 mmHg 15%
16:00 +25°C° 0 mm 2 mps 679 mmHg 17%
17:00 +24°C° 0 mm 2 mps 679 mmHg 19%
18:00 +21°C° 0 mm 1 mps 679 mmHg 21%
19:00 +19°C° 0 mm 1 mps 680 mmHg 24%
20:00 +16°C° 0 mm 1 mps 680 mmHg 27%
21:00 +15°C° 0 mm 1 mps 680 mmHg 29%
22:00 +14°C° 0 mm 1 mps 680 mmHg 32%
23:00 +14°C° 0 mm 1 mps 680 mmHg 34%

Day after tomorrow, 15 July, Wednesday

Time Temperature Precipitation Wind Pressure Humidity
00:00 +13°C° 0 mm 1 mps 680 mmHg 37%
01:00 +11°C° 0 mm 0 mps 680 mmHg 40%
02:00 +11°C° 0 mm 0 mps 680 mmHg 42%
03:00 +10°C° 0 mm 0 mps 680 mmHg 44%
04:00 +10°C° 0 mm 0 mps 681 mmHg 45%
05:00 +9°C° 0 mm 0 mps 681 mmHg 47%
06:00 +11°C° 0 mm 1 mps 682 mmHg 43%
07:00 +12°C° 0 mm 1 mps 684 mmHg 39%
08:00 +14°C° 0 mm 1 mps 685 mmHg 35%
09:00 +16°C° 0 mm 2 mps 686 mmHg 35%
10:00 +18°C° 0 mm 3 mps 686 mmHg 35%
11:00 +20°C° 0 mm 4 mps 687 mmHg 35%
12:00 +20°C° 0 mm 4 mps 687 mmHg 39%
13:00 +20°C° 0 mm 4 mps 687 mmHg 42%
14:00 +20°C° 0 mm 5 mps 687 mmHg 46%
15:00 +19°C° 0 mm 4 mps 687 mmHg 54%
16:00 +18°C° 0 mm 4 mps 687 mmHg 63%
17:00 +16°C° 0 mm 3 mps 686 mmHg 71%
18:00 +14°C° 0 mm 3 mps 687 mmHg 73%
19:00 +13°C° 0 mm 3 mps 687 mmHg 75%
20:00 +13°C° 0 mm 2 mps 687 mmHg 77%
21:00 +12°C° 0 mm 3 mps 687 mmHg 77%
22:00 +12°C° 0 mm 3 mps 687 mmHg 77%
23:00 +11°C° 0 mm 3 mps 688 mmHg 77%

16 July, Thursday

Time Temperature Precipitation Wind Pressure Humidity
00:00 +11°C° 0 mm 3 mps 687 mmHg 79%
01:00 +10°C° 0 mm 2 mps 687 mmHg 82%
02:00 +9°C° 0 mm 2 mps 687 mmHg 85%
03:00 +9°C° 0 mm 2 mps 687 mmHg 85%
04:00 +8°C° 0 mm 2 mps 687 mmHg 85%
05:00 +8°C° 0 mm 2 mps 687 mmHg 85%
06:00 +9°C° 0 mm 2 mps 687 mmHg 80%
07:00 +9°C° 0 mm 2 mps 688 mmHg 76%
08:00 +10°C° 0 mm 2 mps 688 mmHg 72%
09:00 +13°C° 0 mm 2 mps 688 mmHg 60%
10:00 +14°C° 0 mm 3 mps 689 mmHg 48%
11:00 +17°C° 0 mm 3 mps 689 mmHg 36%
12:00 +18°C° 0 mm 3 mps 688 mmHg 33%
13:00 +19°C° 0 mm 4 mps 688 mmHg 31%
14:00 +20°C° 0 mm 4 mps 687 mmHg 28%
15:00 +18°C° 0 mm 4 mps 687 mmHg 35%
16:00 +17°C° 0 mm 4 mps 687 mmHg 42%
17:00 +16°C° 0 mm 3 mps 687 mmHg 49%
18:00 +13°C° 0 mm 3 mps 686 mmHg 58%
19:00 +12°C° 0 mm 2 mps 686 mmHg 67%
20:00 +10°C° 0 mm 1 mps 686 mmHg 76%
21:00 +9°C° 0 mm 1 mps 686 mmHg 80%
22:00 +8°C° 0 mm 1 mps 686 mmHg 84%
23:00 +8°C° 0 mm 1 mps 686 mmHg 88%

17 July, Friday

Time Temperature Precipitation Wind Pressure Humidity
00:00 +6°C° 0 mm 0 mps 686 mmHg 89%
01:00 +6°C° 0 mm 0 mps 685 mmHg 91%
02:00 +5°C° 0 mm 0 mps 685 mmHg 92%
03:00 +5°C° 0 mm 0 mps 685 mmHg 92%
04:00 +5°C° 0 mm 0 mps 684 mmHg 92%
05:00 +5°C° 0 mm 0 mps 684 mmHg 92%
06:00 +7°C° 0 mm 1 mps 685 mmHg 86%
07:00 +9°C° 0 mm 1 mps 686 mmHg 81%
08:00 +10°C° 0 mm 1 mps 686 mmHg 76%
09:00 +12°C° 0 mm 1 mps 687 mmHg 66%
10:00 +15°C° 0 mm 2 mps 687 mmHg 56%
11:00 +17°C° 0 mm 3 mps 687 mmHg 46%
12:00 +18°C° 0 mm 3 mps 687 mmHg 43%
13:00 +19°C° 0 mm 4 mps 686 mmHg 40%
14:00 +20°C° 0 mm 4 mps 686 mmHg 37%
15:00 +18°C° 0 mm 4 mps 686 mmHg 44%
16:00 +17°C° 0 mm 4 mps 685 mmHg 51%
17:00 +15°C° 0 mm 4 mps 685 mmHg 58%
18:00 +13°C° 0 mm 3 mps 685 mmHg 69%
19:00 +12°C° 0 mm 2 mps 685 mmHg 79%
20:00 +10°C° 0 mm 1 mps 685 mmHg 89%
21:00 +9°C° 0 mm 1 mps 685 mmHg 90%
22:00 +9°C° 0 mm 1 mps 685 mmHg 91%
23:00 +9°C° 0 mm 1 mps 685 mmHg 92%

18 July, Saturday

Time Temperature Precipitation Wind Pressure Humidity
00:00 +9°C° 0 mm 1 mps 684 mmHg 92%
01:00 +8°C° 0 mm 1 mps 684 mmHg 92%
02:00 +8°C° 0 mm 1 mps 684 mmHg 93%
03:00 +8°C° 0 mm 1 mps 684 mmHg 94%
04:00 +6°C° 0 mm 0 mps 683 mmHg 95%
05:00 +6°C° 0 mm 0 mps 683 mmHg 96%
06:00 +7°C° 0 mm 0 mps 684 mmHg 90%
07:00 +9°C° 0 mm 0 mps 685 mmHg 84%
08:00 +10°C° 0 mm 0 mps 685 mmHg 78%
09:00 +13°C° 0 mm 1 mps 686 mmHg 69%
10:00 +15°C° 0 mm 2 mps 686 mmHg 60%
11:00 +18°C° 0 mm 3 mps 686 mmHg 51%
12:00 +18°C° 0 mm 3 mps 686 mmHg 49%
13:00 +19°C° 0 mm 3 mps 685 mmHg 47%
14:00 +20°C° 0 mm 4 mps 684 mmHg 44%
15:00 +19°C° 0 mm 3 mps 684 mmHg 48%
16:00 +18°C° 0 mm 3 mps 684 mmHg 52%
17:00 +17°C° 0 mm 3 mps 683 mmHg 56%
18:00 +15°C° 0 mm 2 mps 683 mmHg 66%
19:00 +13°C° 0 mm 2 mps 683 mmHg 77%
20:00 +11°C° 0 mm 1 mps 683 mmHg 88%
21:00 +11°C° 0 mm 1 mps 683 mmHg 89%
22:00 +10°C° 0 mm 1 mps 683 mmHg 91%
23:00 +10°C° 0 mm 1 mps 683 mmHg 92%
Show more